QPF
0.04 0.04 0.05 0.06 0.07 0.09 0.11 0.11 0.14 0.16 0.16 0.18 0.17 0.18 0.18 0.19 0.17 0.17 0.18 0.19 0.20 0.22 0.23 0.21 0.17 0.15 0.19 0.19 0.17 0.16 0.16 0.16 0.17 0.16 0.12 0.09 0.07 0.05 0.04 0.04 0.03 0.03 0.02
0.06 0.04 0.05 0.05 0.05 0.06 0.09 0.11 0.12 0.15 0.15 0.17 0.16 0.14 0.14 0.15 0.14 0.13 0.16 0.17 0.18 0.20 0.23 0.22 0.17 0.14 0.15 0.16 0.16 0.16 0.16 0.15 0.16 0.18 0.16 0.12 0.08 0.06 0.04 0.04 0.03 0.03 0.03
0.04 0.04 0.03 0.04 0.04 0.05 0.09 0.09 0.09 0.09 0.13 0.14 0.16 0.16 0.16 0.14 0.13 0.13 0.13 0.13 0.16 0.17 0.20 0.21 0.20 0.16 0.13 0.14 0.14 0.15 0.14 0.14 0.15 0.15 0.15 0.13 0.10 0.07 0.05 0.05 0.04 0.04 0.02
0.02 0.01 0.01 0.02 0.03 0.05 0.06 0.08 0.08 0.07 0.09 0.13 0.17 0.18 0.22 0.16 0.12 0.12 0.12 0.13 0.13 0.14 0.14 0.15 0.18 0.22 0.20 0.17 0.15 0.15 0.14 0.14 0.17 0.17 0.14 0.12 0.10 0.08 0.07 0.07 0.07 0.06 0.04
0.01 0.01 0.01 0.02 0.03 0.04 0.04 0.06 0.07 0.05 0.06 0.10 0.13 0.14 0.17 0.16 0.13 0.12 0.11 0.12 0.14 0.13 0.11 0.10 0.11 0.14 0.18 0.20 0.18 0.19 0.17 0.15 0.17 0.18 0.16 0.13 0.12 0.10 0.09 0.07 0.08 0.08 0.06
0.00 0.01 0.01 0.02 0.02 0.02 0.04 0.06 0.06 0.06 0.05 0.07 0.09 0.09 0.09 0.10 0.13 0.12 0.12 0.14 0.15 0.15 0.11 0.11 0.12 0.12 0.15 0.17 0.17 0.19 0.20 0.19 0.19 0.16 0.15 0.13 0.13 0.11 0.08 0.06 0.07 0.06 0.05
0.00 0.01 0.01 0.01 0.01 0.01 0.02 0.04 0.05 0.04 0.04 0.05 0.06 0.06 0.06 0.08 0.11 0.11 0.13 0.14 0.16 0.17 0.14 0.12 0.12 0.14 0.14 0.13 0.13 0.13 0.15 0.16 0.15 0.14 0.13 0.10 0.08 0.06 0.05 0.05 0.06 0.06 0.05
0.00 0.01 0.01 0.01 0.01 0.01 0.02 0.03 0.04 0.03 0.02 0.02 0.04 0.05 0.05 0.06 0.09 0.13 0.17 0.15 0.15 0.17 0.16 0.14 0.12 0.12 0.12 0.13 0.13 0.11 0.10 0.08 0.07 0.06 0.06 0.05 0.05 0.04 0.05 0.04 0.04 0.03 0.03
0.01 0.01 0.01 0.01 0.01 0.02 0.01 0.01 0.02 0.02 0.02 0.01 0.02 0.03 0.05 0.05 0.08 0.14 0.17 0.17 0.18 0.20 0.17 0.14 0.11 0.09 0.10 0.12 0.13 0.10 0.08 0.05 0.05 0.05 0.05 0.05 0.05 0.05 0.04 0.03 0.02 0.02 0.02
0.01 0.01 0.01 0.01 0.01 0.01 0.01 0.01 0.01 0.02 0.02 0.02 0.02 0.02 0.02 0.03 0.05 0.11 0.15 0.17 0.19 0.18 0.15 0.11 0.09 0.08 0.08 0.10 0.12 0.09 0.07 0.04 0.03 0.03 0.02 0.02 0.02 0.02 0.03 0.04 0.04 0.04 0.03
0.00 0.00 0.00 0.00 0.00 0.00 0.01 0.01 0.02 0.02 0.02 0.02 0.02 0.01 0.01 0.01 0.03 0.07 0.11 0.13 0.15 0.17 0.16 0.12 0.08 0.07 0.07 0.08 0.09 0.07 0.06 0.03 0.03 0.03 0.03 0.02 0.02 0.02 0.02 0.02 0.02 0.03 0.03
0.00 0.00 0.00 0.00 0.00 0.00 0.01 0.02 0.02 0.01 0.02 0.02 0.01 0.01 0.01 0.01 0.02 0.03 0.06 0.10 0.12 0.11 0.11 0.10 0.07 0.07 0.06 0.06 0.06 0.05 0.06 0.04 0.03 0.03 0.03 0.03 0.02 0.01 0.01 0.00 0.00 0.00 0.00
0.00 0.00 0.00 0.00 0.00 0.00 0.01 0.01 0.01 0.02 0.02 0.02 0.02 0.01 0.01 0.01 0.02 0.03 0.04 0.07 0.08 0.06 0.05 0.05 0.04 0.04 0.04 0.03 0.03 0.03 0.04 0.05 0.05 0.03 0.01 0.01 0.02 0.01 0.00 0.00 0.00 0.00 0.00
0.00 0.00 0.00 0.00 0.00 0.00 0.01 0.01 0.01 0.01 0.01 0.01 0.02 0.01 0.01 0.01 0.02 0.02 0.02 0.03 0.03 0.03 0.03 0.04 0.03 0.02 0.03 0.02 0.03 0.03 0.03 0.04 0.05 0.04 0.01 0.01 0.01 0.01 0.00 0.00 0.00 0.00 0.00
0.00 0.00 0.00 0.00 0.00 0.00 0.00 0.00 0.00 0.00 0.00 0.01 0.01 0.01 0.01 0.00 0.01 0.01 0.03 0.03 0.03 0.02 0.03 0.04 0.04 0.04 0.04 0.03 0.02 0.02 0.01 0.02 0.03 0.02 0.02 0.02 0.02 0.02 0.01 0.01 0.01 0.01 0.01
0.00 0.00 0.00 0.00 0.00 0.00 0.00 0.00 0.00 0.00 0.00 0.00 0.00 0.00 0.00 0.00 0.00 0.01 0.01 0.02 0.02 0.04 0.07 0.05 0.03 0.05 0.05 0.04 0.03 0.02 0.02 0.02 0.02 0.02 0.02 0.02 0.02 0.01 0.01 0.01 0.01 0.01 0.01
0.00 0.00 0.00 0.00 0.00 0.00 0.00 0.01 0.01 0.00 0.00 0.00 0.00 0.00 0.00 0.00 0.00 0.00 0.00 0.01 0.01 0.04 0.07 0.05 0.03 0.02 0.02 0.02 0.03 0.02 0.01 0.01 0.01 0.02 0.02 0.01 0.01 0.00 0.00 0.01 0.01 0.01 0.01
0.00 0.00 0.00 0.00 0.00 0.00 0.00 0.00 0.00 0.00 0.00 0.00 0.00 0.00 0.00 0.00 0.00 0.00 0.00 0.01 0.02 0.02 0.03 0.03 0.02 0.01 0.01 0.02 0.03 0.02 0.01 0.01 0.01 0.01 0.01 0.01 0.00 0.00 0.00 0.00 0.01 0.01 0.01
0.00 0.00 0.00 0.00 0.00 0.00 0.00 0.00 0.00 0.00 0.00 0.00 0.00 0.00 0.00 0.00 0.00 0.00 0.00 0.02 0.03 0.01 0.01 0.01 0.01 0.01 0.01 0.01 0.01 0.01 0.01 0.01 0.01 0.01 0.01 0.01 0.01 0.00 0.00 0.00 0.00 0.00 0.00
0.00 0.00 0.00 0.00 0.00 0.00 0.00 0.00 0.00 0.00 0.00 0.00 0.00 0.00 0.00 0.00 0.00 0.00 0.00 0.01 0.01 0.01 0.01 0.01 0.01 0.00 0.01 0.01 0.00 0.00 0.01 0.01 0.01 0.02 0.02 0.02 0.01 0.01 0.00 0.00 0.00 0.00 0.00
0.00 0.00 0.00 0.00 0.00 0.00 0.00 0.00 0.00 0.00 0.00 0.00 0.00 0.00 0.00 0.00 0.00 0.00 0.00 0.00 0.00 0.00 0.00 0.00 0.00 0.00 0.00 0.01 0.01 0.01 0.01 0.01 0.01 0.01 0.01 0.01 0.01 0.00 0.00 0.00 0.00 0.00 0.00
0.00 0.00 0.00 0.00 0.00 0.00 0.00 0.00 0.00 0.00 0.00 0.00 0.00 0.00 0.00 0.00 0.00 0.00 0.00 0.00 0.00 0.00 0.00 0.00 0.00 0.00 0.00 0.00 0.01 0.01 0.01 0.01 0.00 0.00 0.01 0.01 0.01 0.01 0.01 0.00 0.00 0.00 0.00
0.00 0.00 0.00 0.00 0.00 0.00 0.00 0.00 0.00 0.00 0.00 0.00 0.00 0.00 0.00 0.00 0.00 0.00 0.00 0.00 0.00 0.00 0.00 0.00 0.00 0.00 0.00 0.00 0.00 0.00 0.00 0.00 0.00 0.00 0.00 0.01 0.01 0.01 0.01 0.00 0.01 0.01 0.01
0.00 0.00 0.00 0.00 0.00 0.00 0.00 0.00 0.00 0.00 0.00 0.00 0.00 0.00 0.00 0.00 0.00 0.00 0.00 0.00 0.00 0.00 0.00 0.00 0.00 0.00 0.00 0.00 0.00 0.00 0.00 0.00 0.00 0.00 0.00 0.00 0.00 0.01 0.01 0.01 0.01 0.01 0.00
0.00 0.00 0.00 0.00 0.00 0.00 0.00 0.00 0.00 0.00 0.00 0.00 0.00 0.00 0.00 0.00 0.00 0.00 0.00 0.00 0.00 0.00 0.00 0.00 0.00 0.00 0.00 0.00 0.00 0.00 0.00 0.00 0.00 0.00 0.00 0.00 0.00 0.00 0.00 0.00 0.00 0.00 0.00
0.00 0.00 0.00 0.00 0.00 0.00 0.00 0.00 0.00 0.00 0.00 0.00 0.00 0.00 0.00 0.00 0.00 0.00 0.00 0.00 0.00 0.00 0.00 0.00 0.00 0.00 0.00 0.00 0.00 0.00 0.00 0.00 0.00 0.00 0.00 0.00 0.00 0.00 0.00 0.00 0.00 0.00 0.00
MSLP
1015.06 1014.81 1014.58 1014.35 1014.09 1013.77 1013.39 1012.95 1012.46 1011.93 1011.39 1010.85 1010.36 1009.92 1009.55 1009.27 1009.10 1009.04 1009.10 1009.28 1009.58 1010.00 1010.52 1011.12 1011.77 1012.46 1013.15 1013.81 1014.42 1014.96 1015.42 1015.80 1016.10 1016.32 1016.48 1016.61 1016.71 1016.82 1016.95 1017.10 1017.29 1017.52 1017.77
1015.15 1014.90 1014.66 1014.42 1014.17 1013.87 1013.53 1013.14 1012.71 1012.25 1011.78 1011.31 1010.86 1010.45 1010.08 1009.79 1009.57 1009.43 1009.39 1009.46 1009.63 1009.91 1010.29 1010.76 1011.31 1011.92 1012.57 1013.23 1013.88 1014.49 1015.05 1015.55 1015.97 1016.32 1016.60 1016.82 1016.99 1017.15 1017.30 1017.46 1017.64 1017.85 1018.08
1015.37 1015.14 1014.91 1014.68 1014.43 1014.14 1013.82 1013.46 1013.07 1012.66 1012.24 1011.81 1011.40 1011.02 1010.67 1010.37 1010.12 1009.94 1009.83 1009.81 1009.88 1010.04 1010.31 1010.66 1011.11 1011.63 1012.22 1012.85 1013.51 1014.16 1014.78 1015.36 1015.87 1016.31 1016.68 1016.99 1017.23 1017.44 1017.62 1017.81 1018.00 1018.21 1018.45
1015.67 1015.49 1015.30 1015.08 1014.84 1014.56 1014.24 1013.89 1013.52 1013.13 1012.73 1012.33 1011.95 1011.59 1011.25 1010.96 1010.70 1010.50 1010.35 1010.28 1010.28 1010.37 1010.54 1010.81 1011.17 1011.62 1012.14 1012.73 1013.35 1013.99 1014.63 1015.24 1015.80 1016.30 1016.73 1017.08 1017.38 1017.64 1017.86 1018.09 1018.31 1018.56 1018.82
1016.00 1015.88 1015.74 1015.55 1015.32 1015.05 1014.73 1014.37 1014.00 1013.61 1013.21 1012.83 1012.46 1012.11 1011.79 1011.50 1011.25 1011.04 1010.89 1010.79 1010.77 1010.82 1010.94 1011.16 1011.46 1011.84 1012.30 1012.83 1013.40 1014.01 1014.62 1015.21 1015.76 1016.27 1016.71 1017.09 1017.42 1017.71 1017.97 1018.24 1018.51 1018.81 1019.12
1016.29 1016.24 1016.15 1016.00 1015.79 1015.52 1015.20 1014.84 1014.46 1014.06 1013.67 1013.28 1012.91 1012.57 1012.25 1011.97 1011.74 1011.55 1011.41 1011.32 1011.30 1011.35 1011.46 1011.65 1011.92 1012.25 1012.66 1013.12 1013.63 1014.17 1014.71 1015.25 1015.76 1016.22 1016.64 1017.01 1017.34 1017.65 1017.95 1018.25 1018.58 1018.93 1019.30
1016.50 1016.52 1016.47 1016.36 1016.17 1015.92 1015.61 1015.25 1014.87 1014.47 1014.07 1013.68 1013.31 1012.97 1012.66 1012.40 1012.17 1012.00 1011.89 1011.84 1011.84 1011.91 1012.04 1012.23 1012.48 1012.78 1013.14 1013.54 1013.98 1014.43 1014.89 1015.35 1015.78 1016.18 1016.55 1016.88 1017.20 1017.50 1017.82 1018.15 1018.52 1018.92 1019.36
1016.63 1016.68 1016.67 1016.58 1016.43 1016.20 1015.91 1015.58 1015.22 1014.83 1014.44 1014.06 1013.69 1013.35 1013.05 1012.79 1012.59 1012.44 1012.36 1012.33 1012.37 1012.47 1012.63 1012.83 1013.08 1013.37 1013.69 1014.03 1014.40 1014.77 1015.14 1015.50 1015.84 1016.17 1016.47 1016.76 1017.05 1017.34 1017.65 1018.00 1018.39 1018.83 1019.31
1016.70 1016.76 1016.76 1016.70 1016.57 1016.38 1016.13 1015.84 1015.52 1015.17 1014.81 1014.45 1014.10 1013.77 1013.47 1013.22 1013.03 1012.89 1012.83 1012.83 1012.90 1013.03 1013.20 1013.42 1013.67 1013.94 1014.23 1014.53 1014.83 1015.13 1015.42 1015.71 1015.97 1016.23 1016.47 1016.72 1016.97 1017.23 1017.53 1017.88 1018.27 1018.72 1019.21
1016.76 1016.80 1016.80 1016.75 1016.65 1016.50 1016.31 1016.08 1015.81 1015.52 1015.21 1014.89 1014.56 1014.25 1013.96 1013.72 1013.52 1013.39 1013.33 1013.34 1013.42 1013.56 1013.74 1013.97 1014.21 1014.47 1014.74 1015.00 1015.26 1015.51 1015.74 1015.97 1016.19 1016.39 1016.60 1016.81 1017.03 1017.27 1017.55 1017.87 1018.25 1018.67 1019.15
1016.83 1016.84 1016.83 1016.79 1016.73 1016.63 1016.50 1016.34 1016.15 1015.93 1015.68 1015.40 1015.11 1014.82 1014.55 1014.30 1014.09 1013.95 1013.88 1013.88 1013.94 1014.07 1014.25 1014.46 1014.69 1014.94 1015.18 1015.42 1015.65 1015.87 1016.09 1016.29 1016.48 1016.67 1016.86 1017.06 1017.26 1017.49 1017.74 1018.03 1018.36 1018.75 1019.17
1016.94 1016.93 1016.91 1016.88 1016.85 1016.80 1016.74 1016.66 1016.55 1016.40 1016.22 1016.00 1015.75 1015.48 1015.21 1014.96 1014.74 1014.57 1014.47 1014.44 1014.47 1014.57 1014.72 1014.90 1015.11 1015.33 1015.56 1015.79 1016.01 1016.23 1016.44 1016.65 1016.86 1017.06 1017.26 1017.46 1017.66 1017.87 1018.10 1018.35 1018.64 1018.96 1019.32
1017.07 1017.05 1017.03 1017.03 1017.03 1017.04 1017.05 1017.04 1017.00 1016.93 1016.81 1016.65 1016.43 1016.19 1015.92 1015.66 1015.42 1015.23 1015.09 1015.01 1015.00 1015.06 1015.16 1015.31 1015.48 1015.68 1015.88 1016.10 1016.32 1016.55 1016.79 1017.03 1017.27 1017.51 1017.74 1017.96 1018.18 1018.39 1018.59 1018.81 1019.04 1019.29 1019.57
1017.18 1017.17 1017.17 1017.20 1017.25 1017.31 1017.38 1017.44 1017.47 1017.46 1017.40 1017.28 1017.10 1016.87 1016.62 1016.35 1016.09 1015.87 1015.70 1015.58 1015.53 1015.53 1015.59 1015.69 1015.82 1015.98 1016.17 1016.38 1016.61 1016.85 1017.12 1017.39 1017.68 1017.96 1018.24 1018.49 1018.73 1018.94 1019.13 1019.31 1019.49 1019.68 1019.89
1017.22 1017.24 1017.28 1017.35 1017.44 1017.56 1017.69 1017.80 1017.89 1017.93 1017.91 1017.83 1017.68 1017.47 1017.23 1016.97 1016.70 1016.47 1016.27 1016.12 1016.03 1015.99 1016.01 1016.06 1016.16 1016.29 1016.45 1016.64 1016.87 1017.12 1017.41 1017.72 1018.04 1018.36 1018.67 1018.96 1019.21 1019.43 1019.61 1019.77 1019.91 1020.05 1020.21
1017.15 1017.21 1017.29 1017.40 1017.54 1017.71 1017.87 1018.03 1018.16 1018.24 1018.25 1018.20 1018.08 1017.90 1017.68 1017.44 1017.20 1016.97 1016.77 1016.62 1016.51 1016.45 1016.43 1016.45 1016.51 1016.61 1016.74 1016.91 1017.12 1017.37 1017.67 1017.99 1018.33 1018.67 1019.00 1019.30 1019.57 1019.78 1019.96 1020.10 1020.22 1020.33 1020.46
1016.93 1017.04 1017.16 1017.32 1017.50 1017.69 1017.89 1018.08 1018.23 1018.33 1018.38 1018.36 1018.27 1018.12 1017.94 1017.74 1017.53 1017.34 1017.17 1017.04 1016.94 1016.88 1016.85 1016.86 1016.89 1016.96 1017.06 1017.20 1017.38 1017.61 1017.89 1018.19 1018.52 1018.86 1019.19 1019.49 1019.75 1019.97 1020.14 1020.27 1020.39 1020.49 1020.61
1016.60 1016.73 1016.89 1017.08 1017.28 1017.50 1017.72 1017.92 1018.08 1018.20 1018.26 1018.27 1018.21 1018.12 1017.99 1017.84 1017.70 1017.57 1017.46 1017.37 1017.31 1017.28 1017.26 1017.27 1017.29 1017.33 1017.40 1017.51 1017.65 1017.84 1018.07 1018.35 1018.64 1018.95 1019.25 1019.53 1019.78 1019.99 1020.15 1020.29 1020.40 1020.51 1020.64
1016.19 1016.34 1016.52 1016.71 1016.93 1017.15 1017.37 1017.56 1017.73 1017.85 1017.93 1017.96 1017.94 1017.89 1017.83 1017.76 1017.69 1017.64 1017.61 1017.59 1017.59 1017.61 1017.62 1017.65 1017.67 1017.70 1017.75 1017.82 1017.92 1018.06 1018.25 1018.46 1018.71 1018.97 1019.23 1019.47 1019.69 1019.88 1020.04 1020.17 1020.30 1020.42 1020.57
1015.78 1015.93 1016.09 1016.29 1016.49 1016.69 1016.89 1017.07 1017.23 1017.35 1017.43 1017.48 1017.49 1017.50 1017.50 1017.50 1017.52 1017.56 1017.61 1017.68 1017.75 1017.83 1017.89 1017.95 1017.99 1018.02 1018.06 1018.10 1018.17 1018.26 1018.39 1018.55 1018.74 1018.94 1019.16 1019.36 1019.55 1019.72 1019.87 1020.00 1020.13 1020.28 1020.44
1015.41 1015.54 1015.69 1015.86 1016.03 1016.21 1016.38 1016.53 1016.66 1016.76 1016.84 1016.89 1016.94 1016.99 1017.04 1017.11 1017.21 1017.32 1017.46 1017.61 1017.75 1017.89 1018.01 1018.11 1018.19 1018.24 1018.28 1018.31 1018.36 1018.42 1018.51 1018.62 1018.76 1018.92 1019.08 1019.25 1019.41 1019.55 1019.69 1019.83 1019.97 1020.12 1020.30
1015.12 1015.24 1015.36 1015.49 1015.63 1015.76 1015.89 1016.00 1016.09 1016.17 1016.23 1016.29 1016.35 1016.42 1016.51 1016.63 1016.77 1016.95 1017.15 1017.36 1017.57 1017.77 1017.95 1018.09 1018.21 1018.29 1018.36 1018.41 1018.45 1018.50 1018.58 1018.66 1018.77 1018.89 1019.03 1019.17 1019.30 1019.44 1019.57 1019.70 1019.84 1020.00 1020.18
1014.90 1015.00 1015.10 1015.20 1015.29 1015.39 1015.47 1015.53 1015.59 1015.63 1015.67 1015.71 1015.76 1015.84 1015.94 1016.08 1016.25 1016.46 1016.70 1016.95 1017.20 1017.44 1017.66 1017.86 1018.02 1018.15 1018.25 1018.34 1018.41 1018.48 1018.57 1018.66 1018.76 1018.87 1019.00 1019.12 1019.25 1019.37 1019.50 1019.62 1019.76 1019.91 1020.08
1014.69 1014.79 1014.88 1014.95 1015.02 1015.08 1015.12 1015.15 1015.17 1015.17 1015.18 1015.20 1015.23 1015.29 1015.38 1015.51 1015.68 1015.88 1016.12 1016.38 1016.65 1016.92 1017.17 1017.41 1017.62 1017.80 1017.96 1018.09 1018.22 1018.34 1018.46 1018.58 1018.70 1018.83 1018.97 1019.09 1019.22 1019.34 1019.46 1019.58 1019.71 1019.84 1020.00
1014.42 1014.53 1014.62 1014.69 1014.75 1014.78 1014.80 1014.81 1014.79 1014.77 1014.75 1014.74 1014.74 1014.77 1014.83 1014.93 1015.07 1015.25 1015.46 1015.71 1015.97 1016.24 1016.52 1016.78 1017.03 1017.27 1017.49 1017.69 1017.88 1018.06 1018.24 1018.41 1018.58 1018.74 1018.90 1019.05 1019.18 1019.31 1019.43 1019.54 1019.65 1019.77 1019.90
1014.00 1014.15 1014.26 1014.35 1014.41 1014.44 1014.45 1014.45 1014.43 1014.39 1014.35 1014.31 1014.29 1014.28 1014.30 1014.36 1014.45 1014.59 1014.76 1014.97 1015.21 1015.47 1015.74 1016.03 1016.32 1016.61 1016.88 1017.16 1017.42 1017.67 1017.92 1018.15 1018.37 1018.57 1018.76 1018.93 1019.08 1019.22 1019.34 1019.45 1019.55 1019.65 1019.75
Thickness
5644 5643 5643 5643 5644 5645 5647 5648 5651 5654 5658 5660 5663 5667 5672 5675 5679 5682 5686 5688 5690 5693 5696 5698 5699 5701 5701 5703 5704 5705 5705 5704 5699 5700 5702 5705 5705 5706 5705 5705 5703 5701 5699
5644 5643 5642 5642 5642 5642 5644 5646 5648 5650 5653 5655 5658 5661 5665 5668 5672 5675 5679 5682 5684 5687 5690 5692 5694 5696 5696 5698 5698 5699 5699 5699 5697 5693 5694 5696 5697 5698 5698 5697 5696 5694 5692
5645 5642 5641 5640 5640 5640 5641 5643 5645 5646 5648 5651 5653 5655 5659 5661 5665 5668 5672 5676 5679 5682 5684 5686 5689 5691 5691 5692 5693 5693 5693 5694 5693 5691 5688 5689 5689 5690 5689 5689 5689 5687 5684
5645 5642 5639 5638 5638 5638 5639 5640 5641 5642 5644 5646 5648 5650 5653 5655 5658 5662 5665 5669 5672 5675 5679 5681 5684 5686 5687 5688 5688 5688 5688 5687 5687 5685 5683 5682 5682 5683 5682 5680 5678 5678 5676
5646 5641 5639 5638 5637 5637 5636 5637 5637 5638 5640 5641 5643 5645 5647 5650 5653 5656 5659 5663 5665 5668 5671 5674 5677 5680 5683 5684 5684 5683 5683 5682 5680 5679 5677 5676 5674 5674 5673 5673 5671 5669 5667
5646 5642 5639 5638 5636 5635 5634 5634 5634 5635 5636 5637 5638 5639 5641 5643 5647 5651 5655 5657 5659 5662 5664 5667 5671 5673 5676 5676 5677 5678 5679 5677 5675 5673 5671 5669 5668 5669 5669 5667 5664 5662 5658
5647 5643 5640 5637 5635 5634 5633 5632 5632 5632 5632 5633 5634 5635 5635 5637 5642 5646 5650 5652 5654 5656 5658 5661 5664 5666 5668 5669 5669 5671 5671 5672 5673 5670 5666 5664 5664 5665 5664 5661 5660 5658 5655
5648 5644 5641 5638 5635 5633 5632 5631 5630 5630 5630 5630 5630 5630 5632 5634 5637 5641 5645 5647 5648 5650 5652 5655 5656 5658 5661 5662 5663 5662 5662 5663 5665 5665 5664 5663 5663 5662 5662 5660 5657 5654 5651
5648 5645 5642 5639 5636 5633 5631 5630 5630 5629 5628 5628 5627 5627 5628 5629 5632 5636 5639 5641 5642 5642 5644 5647 5649 5650 5653 5656 5656 5654 5653 5653 5656 5658 5658 5658 5658 5658 5657 5655 5651 5648 5643
5650 5647 5645 5642 5638 5634 5632 5630 5629 5628 5627 5627 5625 5625 5625 5625 5628 5632 5635 5635 5635 5635 5637 5639 5641 5644 5646 5649 5649 5649 5647 5648 5650 5650 5650 5651 5652 5652 5651 5651 5649 5645 5641
5654 5650 5647 5644 5641 5637 5634 5632 5630 5628 5627 5625 5624 5622 5622 5621 5623 5626 5629 5630 5630 5630 5631 5631 5633 5637 5640 5643 5643 5643 5644 5645 5646 5646 5645 5645 5645 5646 5646 5647 5647 5645 5640
5658 5654 5650 5646 5643 5640 5636 5633 5631 5629 5626 5624 5622 5620 5619 5619 5619 5620 5623 5625 5626 5626 5626 5626 5628 5632 5635 5637 5638 5640 5642 5643 5642 5641 5639 5638 5639 5639 5640 5641 5641 5641 5639
5662 5658 5654 5650 5646 5641 5637 5634 5630 5628 5626 5623 5621 5618 5617 5617 5616 5617 5619 5621 5622 5622 5622 5623 5625 5628 5630 5632 5634 5636 5638 5637 5636 5634 5633 5633 5634 5635 5635 5635 5635 5634 5633
5666 5662 5658 5653 5648 5643 5638 5635 5630 5626 5624 5623 5620 5618 5617 5615 5614 5614 5616 5617 5619 5620 5620 5621 5623 5625 5626 5628 5630 5631 5633 5633 5632 5630 5630 5630 5631 5631 5630 5630 5628 5627 5624
5670 5666 5661 5656 5650 5645 5640 5634 5631 5626 5623 5621 5620 5619 5616 5614 5612 5614 5615 5616 5617 5618 5619 5621 5621 5622 5622 5623 5625 5626 5628 5628 5628 5628 5627 5627 5627 5626 5626 5627 5625 5623 5619
5673 5669 5664 5659 5654 5650 5644 5637 5632 5629 5626 5624 5622 5621 5618 5616 5616 5617 5617 5618 5619 5620 5620 5619 5618 5619 5619 5620 5621 5622 5623 5624 5625 5625 5625 5625 5624 5623 5623 5623 5622 5620 5616
5677 5672 5668 5664 5659 5654 5650 5644 5638 5632 5629 5627 5625 5623 5622 5620 5619 5619 5619 5619 5620 5621 5619 5618 5618 5618 5618 5619 5620 5620 5620 5622 5623 5623 5623 5623 5623 5622 5621 5620 5619 5617 5615
5680 5675 5671 5666 5663 5659 5655 5651 5647 5641 5636 5632 5629 5627 5625 5624 5622 5622 5622 5621 5620 5620 5619 5618 5618 5618 5618 5618 5619 5619 5620 5620 5621 5621 5621 5621 5621 5621 5620 5618 5617 5615 5613
5683 5679 5674 5671 5667 5663 5660 5656 5652 5649 5644 5640 5635 5631 5629 5627 5626 5625 5625 5623 5623 5621 5621 5620 5619 5619 5619 5619 5619 5619 5620 5620 5620 5620 5620 5620 5620 5619 5618 5617 5615 5614 5613
5684 5679 5676 5672 5669 5667 5664 5660 5656 5652 5649 5645 5641 5637 5633 5631 5629 5629 5628 5627 5626 5624 5623 5622 5621 5621 5620 5620 5620 5620 5620 5619 5619 5619 5619 5619 5619 5618 5617 5616 5614 5613 5611
5685 5681 5677 5673 5671 5669 5667 5663 5660 5656 5652 5649 5645 5642 5638 5636 5635 5633 5632 5630 5629 5627 5626 5625 5623 5622 5621 5621 5621 5621 5621 5620 5620 5619 5619 5618 5618 5617 5617 5616 5615 5613 5611
5686 5684 5679 5676 5674 5671 5669 5667 5663 5660 5657 5653 5649 5645 5643 5640 5639 5637 5636 5634 5633 5631 5629 5627 5626 5624 5623 5622 5622 5622 5621 5621 5620 5620 5619 5619 5618 5617 5617 5615 5614 5612 5610
5686 5684 5682 5680 5677 5673 5670 5668 5665 5663 5660 5658 5654 5650 5646 5644 5643 5641 5639 5638 5635 5634 5632 5630 5628 5627 5626 5625 5624 5623 5622 5622 5621 5621 5619 5618 5617 5616 5615 5614 5613 5611 5609
5685 5683 5682 5680 5677 5674 5671 5669 5667 5666 5663 5661 5658 5655 5652 5649 5647 5645 5643 5641 5638 5636 5634 5632 5631 5629 5628 5626 5625 5624 5623 5622 5621 5620 5620 5618 5617 5616 5615 5613 5612 5611 5608
5683 5682 5680 5679 5677 5674 5672 5670 5669 5667 5666 5663 5661 5659 5656 5653 5650 5648 5646 5643 5641 5639 5637 5635 5633 5631 5630 5628 5626 5624 5622 5621 5620 5619 5618 5617 5616 5615 5614 5613 5611 5609 5607
5681 5679 5678 5677 5675 5674 5672 5670 5668 5667 5666 5665 5663 5660 5658 5656 5653 5651 5648 5646 5643 5641 5638 5637 5635 5633 5631 5629 5627 5625 5622 5620 5619 5617 5616 5614 5614 5613 5612 5610 5610 5607 5606